Overview Statistics Trail Chart Weather Telemetry Raw packets
 

This is the latest recevied weather packets stored in our database for station/object YU7OR-2. If no packets are shown the sender has not sent any weather packets the latest 10 day(s).

<< 4 5 6 7 8 9 10 >>
Time Temp. Humidity Pressure Rain* Wind** Luminosity Snow
1788579106 20° C 51% 1009.7 hPa 0 mm - - -
1788578826 19.44° C 51% 1009.6 hPa 0 mm - - -
1788578560 19.44° C 53% 1009.7 hPa 0 mm - - -
1788578291 19.44° C 54% 1009.8 hPa 0 mm - - -
1788578021 20° C 54% 1009.8 hPa 0 mm - - -
1788577741 20° C 54% 1009.7 hPa 0 mm - - -
1788577441 20° C 54% 1009.8 hPa 0 mm - - -
1788577147 20° C 54% 1009.7 hPa 0 mm - - -
1788576906 20.56° C 52% 1009.8 hPa 0 mm - - -
1788576607 20.56° C 51% 1009.7 hPa 0 mm - - -
1788576317 20.56° C 51% 1009.7 hPa 0 mm - - -
1788576036 21.11° C 50% 1009.7 hPa 0 mm - - -
1788575740 21.11° C 50% 1009.7 hPa 0 mm - - -
1788575484 21.11° C 50% 1009.7 hPa 0 mm - - -
1788575201 21.11° C 49% 1009.8 hPa 0 mm - - -
1788574921 21.11° C 48% 1009.8 hPa 0 mm - - -
1788574639 21.11° C 48% 1009.8 hPa 0 mm - - -
1788574366 21.11° C 48% 1009.7 hPa 0 mm - - -
1788574126 21.11° C 48% 1009.7 hPa 0 mm - - -
1788573876 21.11° C 48% 1009.7 hPa 0 mm - - -
1788573631 21.11° C 48% 1009.8 hPa 0 mm - - -
1788573391 21.11° C 48% 1009.8 hPa 0 mm - - -
1788573121 21.67° C 47% 1009.7 hPa 0 mm - - -
1788572851 21.67° C 47% 1009.5 hPa 0 mm - - -
1788572566 21.11° C 47% 1009.6 hPa 0 mm - - -

* Rain latest hour (hover to see other rain measurements)
** Current wind speed in m/s (hover to see current wind gust speed)